Location: Unspecified
(41.5516°N, 88.1098°W)
Time: 21:50:04
(UTC-05:00)

Okean 3 - Visible Passes

Search period start: 05 July 2015 00:00
Search period end: 15 July 2015 00:00
Orbit: 579 x 606 km, 82.5° (Epoch: 05 July)

Date Brightness Start Highest point End Pass type
(mag) Time Alt. Az. Time Alt. Az. Time Alt. Az.
05 Jul 5.8 01:02:51 10° NW 01:04:53 14° W 01:04:53 14° W visible
05 Jul 3.4 23:33:10 10° N 23:37:20 68° ENE 23:37:20 68° ENE visible
06 Jul 3.4 23:42:13 10° N 23:46:23 77° W 23:46:23 77° W visible
07 Jul 5.5 22:15:40 10° NE 22:17:45 14° ENE 22:18:51 13° E visible
07 Jul 4.0 23:51:24 10° NNW 23:55:27 48° W 23:55:27 48° W visible
08 Jul 5.0 22:23:54 10° NNE 22:27:02 20° ENE 22:27:56 19° E visible
09 Jul 4.7 00:00:43 10° NNW 00:04:27 31° W 00:04:33 31° W visible
09 Jul 4.5 22:32:31 10° NNE 22:36:14 30° ENE 22:37:02 28° E visible
10 Jul 5.4 00:10:15 10° NW 00:13:26 20° W 00:13:38 20° W visible
10 Jul 3.8 22:41:20 10° N 22:45:24 47° ENE 22:46:08 42° ESE visible
11 Jul 5.9 00:20:11 10° NW 00:22:22 13° W 00:22:45 13° W visible
11 Jul 3.4 22:50:16 10° N 22:54:30 74° E 22:55:16 57° SSE visible
12 Jul 3.5 22:59:20 10° NNW 23:03:33 70° W 23:04:24 53° SSW visible
13 Jul 5.4 21:32:32 10° NE 21:34:54 15° ENE 21:36:56 12° E visible
13 Jul 4.3 23:08:32 10° NNW 23:12:33 44° W 23:13:32 37° SW visible
14 Jul 5.0 21:40:52 10° NNE 21:44:10 22° ENE 21:46:06 17° ESE visible
14 Jul 5.0 23:17:52 10° NNW 23:21:32 28° W 23:22:42 25° WSW visible
